DW6005 Murcia ES current weather conditions

sailwx.info

Wind from 052 at 0 knots gusting 4

Air temperature 12.2° C
Dewpoint 10.0° C

Last reported at 2020-Feb-19 19:01 UTC.
Time now 2020-Feb-19 19:55 UTC

Location: N 38°03' W 001°06'.
View on Google Maps.

See reports from other nearby stations

  
Tides and Currents Weather Stations Pressure Air Temp Water Temp Dewpoint Dewpoint Depression Visibility Wind Speed Wind Dir Waves Ship Positions
date/time (UTC)wind fromknots sea level pressurealtimeterstation pressurevisibilityair tempwater tempwave heightnotes
2020-Feb-19 19:01 052 0 gusting 4 12.2
2020-Feb-19 18:46 057 0 gusting 4 12.8
2020-Feb-19 18:31 051 12.8
2020-Feb-19 18:15 051 13.3
2020-Feb-19 18:01 044 13.9
2020-Feb-19 17:45 051 0 gusting 4 13.9
2020-Feb-19 17:30 051 2 gusting 5 14.4
2020-Feb-19 17:16 051 2 gusting 6 15.0
2020-Feb-19 17:00 054 2 gusting 8 15.0
2020-Feb-19 16:45 051 15.6
2020-Feb-19 16:32 044 15.6
2020-Feb-19 16:15 059 15.6
2020-Feb-19 16:00 049 15.6
2020-Feb-19 15:45 066 15.6
2020-Feb-19 15:30 063 1 gusting 5 15.6
2020-Feb-19 15:15 068 1 gusting 6 15.6
2020-Feb-19 15:00 064 1 gusting 5 15.6
2020-Feb-19 14:45 096 15.6
2020-Feb-19 14:30 090 15.6
2020-Feb-19 14:15 097 15.6
2020-Feb-19 14:00 069 0 gusting 3 15.0
2020-Feb-19 13:45 046 1 gusting 4 15.0
2020-Feb-19 13:30 034 15.0
2020-Feb-19 13:15 051 1 gusting 3 15.0
2020-Feb-19 13:00 038 15.0
2020-Feb-19 12:45 071 15.0
2020-Feb-19 12:30 098 0 gusting 2 15.0
2020-Feb-19 12:15 108 15.0
2020-Feb-19 12:00 109 14.4
2020-Feb-19 11:45 109 14.4
2020-Feb-19 11:30 168 14.4
2020-Feb-19 11:16 168 14.4
2020-Feb-19 11:01 168 14.4
2020-Feb-19 10:47 168 13.9
2020-Feb-19 10:31 169 0 gusting 1 13.9
2020-Feb-19 10:16 179 13.9
2020-Feb-19 10:01 188 13.3
2020-Feb-19 09:46 288 13.3
2020-Feb-19 09:32 288 13.3
2020-Feb-19 09:17 288 12.8
2020-Feb-19 09:01 331 12.8
2020-Feb-19 08:45 331 12.8
2020-Feb-19 08:32 331 12.2
2020-Feb-19 08:15 331 12.2
2020-Feb-19 08:00 331 12.2
2020-Feb-19 07:46 331 12.2
2020-Feb-19 07:31 331 12.2
2020-Feb-19 07:15 331 12.2
2020-Feb-19 07:00 331 12.2
2020-Feb-19 06:45 331 11.7
2020-Feb-19 06:30 331 11.7
2020-Feb-19 06:15 331 11.7
2020-Feb-19 06:00 331 11.7
2020-Feb-19 05:45 331 11.7
2020-Feb-19 05:30 331 11.7
2020-Feb-19 05:15 331 11.7
2020-Feb-19 05:00 331 11.7
2020-Feb-19 04:45 331 11.7
2020-Feb-19 04:30 331 11.7
2020-Feb-19 04:15 331 11.7
2020-Feb-19 04:00 331 11.7
2020-Feb-19 03:45 331 11.7
2020-Feb-19 03:30 331 11.7
2020-Feb-19 03:15 331 11.7
2020-Feb-19 03:00 331 11.7
2020-Feb-19 02:45 331 11.7
2020-Feb-19 02:30 331 12.2
2020-Feb-19 02:15 331 12.2
2020-Feb-19 02:00 331 12.2
2020-Feb-19 01:46 331 12.2
2020-Feb-19 01:32 331 12.2
2020-Feb-19 01:16 331 12.2
2020-Feb-19 01:01 279 12.2
2020-Feb-19 00:47 273 12.2
2020-Feb-19 00:31 009 12.2
2020-Feb-19 00:17 010 12.2
2020-Feb-19 00:02 055 12.2
2020-Feb-18 23:46 056 12.2
2020-Feb-18 23:31 055 12.2
2020-Feb-18 23:17 055 12.2
2020-Feb-18 23:01 056 12.2
2020-Feb-18 22:47 055 12.8
2020-Feb-18 22:31 055 12.8
2020-Feb-18 22:16 056 12.8
2020-Feb-18 22:01 055 12.8
2020-Feb-18 21:46 055 12.8
2020-Feb-18 21:31 056 12.8
2020-Feb-18 21:16 056 12.8
2020-Feb-18 21:01 055 12.8
2020-Feb-18 20:46 055 12.8
2020-Feb-18 20:31 055 12.8
2020-Feb-18 20:16 055 12.8
2020-Feb-18 20:01 056 12.8
2020-Feb-18 19:45 056 12.8
2020-Feb-18 19:31 057 12.8
2020-Feb-18 19:15 026 1 gusting 5 12.2
2020-Feb-18 19:02 057 1 gusting 6 12.8
2020-Feb-18 18:45 024 2 gusting 5 12.8
2020-Feb-18 18:30 032 12.8
2020-Feb-18 18:15 038 0 gusting 8 12.8
2020-Feb-18 18:00 053 3 gusting 9 12.8
2020-Feb-18 17:46 053 4 gusting 9 12.8
2020-Feb-18 17:30 055 2 gusting 9 12.8
2020-Feb-18 17:16 078 4 gusting 9 12.8
2020-Feb-18 17:01 032 2 gusting 6 12.8
2020-Feb-18 16:45 020 2 gusting 6 12.8
2020-Feb-18 16:30 039 3 gusting 7 12.8
2020-Feb-18 16:16 069 4 gusting 9 12.8
2020-Feb-18 16:00 045 3 gusting 9 12.8
2020-Feb-18 15:47 034 3 gusting 6 12.8
2020-Feb-18 15:31 031 4 gusting 10 12.8
2020-Feb-18 15:15 055 4 gusting 9 12.8
2020-Feb-18 15:00 039 3 gusting 10 13.3
2020-Feb-18 14:45 040 2 gusting 9 13.3
2020-Feb-18 14:31 041 7 gusting 13 13.9
2020-Feb-18 14:15 051 3 gusting 9 13.3
2020-Feb-18 14:00 042 2 gusting 7 13.3
2020-Feb-18 13:45 030 3 gusting 7 13.3
2020-Feb-18 13:30 036 4 gusting 7 13.3
2020-Feb-18 13:15 041 1 gusting 3 13.3
2020-Feb-18 13:00 286 13.3
2020-Feb-18 12:45 285 13.3
2020-Feb-18 12:30 311 13.3
2020-Feb-18 12:16 310 13.3
2020-Feb-18 12:00 350 13.9
2020-Feb-18 11:45 321 13.9
2020-Feb-18 11:15 311 13.9
2020-Feb-18 11:00 340 13.3
2020-Feb-18 10:45 338 13.3
2020-Feb-18 10:30 340 1 gusting 5 13.3
2020-Feb-18 10:15 319 0 gusting 6 13.9
2020-Feb-18 10:00 020 13.9
2020-Feb-18 09:45 051 13.9
2020-Feb-18 09:30 057 13.3
2020-Feb-18 09:15 053 1 gusting 3 13.3
2020-Feb-18 09:01 040 1 gusting 5 13.3
2020-Feb-18 08:47 047 1 gusting 4 13.3
2020-Feb-18 08:32 042 1 gusting 5 13.3
2020-Feb-18 08:18 046 3 gusting 9 13.3
2020-Feb-18 08:02 060 2 gusting 5 13.3
2020-Feb-18 07:47 036 2 gusting 7 13.3
2020-Feb-18 07:31 051 1 gusting 4 13.3
2020-Feb-18 07:16 042 13.3
2020-Feb-18 07:00 057 0 gusting 3 13.3
2020-Feb-18 06:46 054 13.3
2020-Feb-18 06:30 052 1 gusting 4 13.3
2020-Feb-18 06:16 038 1 gusting 4 13.3
2020-Feb-18 06:00 040 3 gusting 7 13.3
2020-Feb-18 05:45 044 4 gusting 7 13.3
2020-Feb-18 05:30 046 3 gusting 7 13.3
2020-Feb-18 05:16 052 1 gusting 7 13.3
2020-Feb-18 05:00 036 3 gusting 6 13.3
2020-Feb-18 04:45 055 3 gusting 5 13.3
2020-Feb-18 04:30 049 4 gusting 7 13.3
2020-Feb-18 04:15 034 1 gusting 8 13.3
2020-Feb-18 04:02 048 2 gusting 9 13.3
2020-Feb-18 03:46 050 2 gusting 6 13.3
2020-Feb-18 03:30 061 2 gusting 6 12.8
2020-Feb-18 03:15 038 1 gusting 6 13.3
2020-Feb-18 03:00 059 1 gusting 6 13.3
2020-Feb-18 02:45 065 2 gusting 8 13.3
2020-Feb-18 02:30 069 4 gusting 8 13.3
2020-Feb-18 02:15 060 3 gusting 9 12.8
2020-Feb-18 02:00 055 3 gusting 10 12.8
2020-Feb-18 01:45 030 6 gusting 13 13.3
2020-Feb-18 01:30 058 3 gusting 7 13.9
2020-Feb-18 01:15 049 14.4
2020-Feb-18 01:01 035 15.0
2020-Feb-18 00:46 246 16.1
2020-Feb-18 00:31 246 16.1
2020-Feb-18 00:16 254 15.6
2020-Feb-18 00:01 250 16.1
2020-Feb-17 23:47 248 16.1
2020-Feb-17 23:31 247 1 gusting 7 16.7
2020-Feb-17 23:16 258 3 gusting 10 16.7
2020-Feb-17 23:01 236 0 gusting 6 16.7
2020-Feb-17 22:46 237 2 gusting 5 16.7
2020-Feb-17 22:31 241 3 gusting 6 16.7
2020-Feb-17 22:16 221 3 gusting 8 17.2
2020-Feb-17 22:01 246 2 gusting 7 17.2
2020-Feb-17 21:47 241 1 gusting 8 17.2
2020-Feb-17 21:31 244 5 gusting 8 17.8
2020-Feb-17 21:16 215 6 gusting 10 17.8
2020-Feb-17 21:00 222 2 gusting 8 17.2
2020-Feb-17 20:46 167 2 gusting 7 17.8
2020-Feb-17 20:30 153 1 gusting 6 17.8
2020-Feb-17 20:15 213 0 gusting 3 17.8
2020-Feb-17 20:01 228 0 gusting 4 17.8
2020-Feb-17 19:46 221 1 gusting 5 17.8
2020-Feb-17 19:30 192 16.7
2020-Feb-17 19:15 191 17.2
2020-Feb-17 19:00 221 17.8